Wind_Speed
16 14 12 10 9 10 9 7 5 4 3 3 4 5 6 7 8 9 10 12 13 14 14 15 15 15 15 16 16 16 15 15 15 15 16 16 17 17 18 19 19 20
19 17 15 12 11 11 11 10 8 6 4 3 3 4 5 6 7 8 10 11 12 13 13 14 14 14 15 15 15 15 15 15 14 14 14 14 15 15 15 16 17 17
22 20 18 15 14 14 13 12 10 8 6 4 4 4 5 6 7 8 9 10 11 12 13 13 13 14 14 14 14 14 15 15 14 14 14 14 13 13 13 14 14 15
25 23 20 19 18 17 16 14 12 10 8 6 6 5 6 6 7 8 9 10 11 12 13 13 13 13 14 14 14 14 14 14 14 14 14 14 13 13 13 13 13 13
27 25 23 22 21 19 18 16 14 13 11 8 7 7 7 7 8 8 9 11 12 12 13 13 13 13 14 14 14 14 14 14 15 15 14 14 14 13 13 12 12 12
29 28 26 25 24 21 19 18 16 15 12 10 9 8 8 8 8 9 10 11 11 12 12 12 13 13 13 13 13 14 14 14 14 15 14 14 14 13 13 13 12 12
30 29 28 27 25 23 21 20 18 16 14 12 11 10 10 10 10 10 10 10 11 11 10 11 11 11 12 12 12 12 13 13 14 14 14 14 14 14 13 13 13 13
29 29 29 28 26 25 23 21 20 18 16 14 13 12 12 12 12 12 11 11 10 10 9 9 9 9 10 10 10 11 11 11 12 13 13 14 14 14 13 13 13 13
28 28 28 28 27 26 24 22 20 19 18 16 14 14 13 13 13 13 12 11 11 10 10 9 9 9 9 9 10 10 10 10 10 11 11 12 13 13 13 13 13 13
28 28 28 28 27 26 25 23 21 20 19 18 17 16 14 14 14 14 13 12 11 11 10 10 9 9 9 9 10 10 10 10 10 10 10 11 12 12 13 13 13 13
31 30 30 29 27 26 25 24 22 21 21 20 19 17 16 16 15 14 13 12 12 11 11 10 10 10 9 9 10 10 10 10 10 10 10 10 11 11 12 12 12 12
33 32 32 30 27 26 25 24 24 23 22 22 21 19 18 17 16 15 13 13 12 11 10 9 9 9 9 9 9 9 10 10 10 10 10 10 10 11 12 12 13 13
36 35 33 31 29 27 27 26 25 24 23 23 22 21 20 19 17 15 14 13 12 10 9 8 8 7 7 8 8 8 9 9 10 10 10 11 11 11 11 12 13 13
36 36 35 33 32 30 30 29 28 26 24 23 22 22 21 20 18 17 16 14 11 9 7 6 6 5 6 6 6 7 7 8 9 10 10 11 11 11 12 12 12 13
33 34 35 34 34 33 33 31 29 26 24 23 23 22 22 21 20 18 16 13 10 8 6 5 4 4 5 5 5 6 7 7 8 9 10 11 12 12 13 13 13 13
30 31 33 33 34 34 34 32 29 27 25 24 24 23 23 22 20 18 15 12 9 8 7 5 4 4 5 5 5 6 7 7 8 9 10 12 13 13 14 14 14 15
31 31 31 32 33 33 33 32 30 28 26 26 25 24 22 21 19 17 14 11 10 9 7 5 4 5 6 6 6 7 7 7 8 9 11 12 13 14 15 15 15 16
32 32 31 31 32 33 33 31 29 28 26 26 25 22 21 20 19 17 14 12 11 10 8 6 6 6 7 6 6 7 8 8 9 9 10 11 12 13 15 15 16 16
34 33 32 32 32 32 32 30 29 27 25 24 22 20 19 19 19 17 15 13 12 11 9 8 8 8 8 7 7 8 9 9 10 10 10 11 12 13 14 15 16 17
35 35 34 33 33 32 32 31 29 27 24 21 20 19 19 20 19 17 16 15 14 12 11 10 10 9 9 8 8 8 9 10 10 10 10 11 12 13 13 14 15 17
36 35 34 33 33 33 32 32 30 27 23 21 19 19 20 20 20 18 17 17 16 14 13 13 11 10 10 10 9 9 10 10 10 10 11 11 12 13 14 15 15 16
37 36 34 34 33 33 34 33 32 28 25 21 20 20 21 22 21 20 19 18 17 16 16 15 13 11 11 11 10 10 10 10 10 10 11 12 12 13 15 16 16 16
39 38 37 36 36 36 36 36 34 31 27 24 22 22 23 23 23 22 21 20 20 19 18 16 14 13 14 13 11 11 11 11 10 11 11 12 12 13 15 16 17 17
43 42 41 39 39 39 38 36 34 32 30 28 26 24 24 25 26 25 24 23 22 21 19 17 16 15 15 15 13 12 12 11 11 11 11 12 12 13 15 16 17 18
47 46 45 42 42 41 39 35 33 31 31 32 31 29 26 26 28 28 27 26 24 22 21 19 17 16 16 16 14 14 14 13 13 13 13 12 12 13 15 16 17 18
51 49 47 45 44 42 40 37 34 33 33 32 31 30 29 27 28 30 30 28 26 24 23 21 19 17 17 16 15 15 15 14 15 15 14 13 13 13 14 15 16 17
Wind_Direction
250 256 264 271 269 263 261 265 270 279 302 327 348 359 4 10 15 17 16 15 17 18 20 20 20 20 21 22 24 27 30 31 33 34 36 38 41 42 44 47 50 52
246 251 256 262 262 257 255 257 261 265 273 293 319 336 345 352 359 4 4 6 6 8 11 13 14 14 15 16 17 19 22 24 26 27 29 30 32 34 36 39 42 46
241 246 252 256 254 249 246 249 254 258 262 272 292 312 326 337 344 350 353 356 358 359 2 4 6 7 8 9 9 10 13 16 18 21 21 21 23 25 26 29 33 37
238 242 247 251 252 248 244 244 248 253 257 264 278 292 310 323 332 339 344 348 350 351 354 356 358 360 2 3 3 3 4 7 11 13 13 12 14 15 16 18 20 25
236 239 242 245 249 248 244 242 244 248 253 260 272 287 302 314 323 330 335 340 343 345 348 350 353 354 357 358 359 359 359 360 3 6 7 5 5 7 8 8 9 11
234 236 239 242 245 245 241 240 243 246 251 258 269 284 296 306 315 321 326 331 335 339 343 345 348 351 352 355 355 356 356 356 357 358 360 0 360 359 359 0 1 2
232 234 237 241 244 242 237 237 242 247 251 258 267 279 290 298 306 311 316 322 326 330 333 337 342 345 347 350 352 353 354 354 354 353 353 354 355 355 354 354 355 356
233 234 236 238 240 238 234 235 240 246 250 255 263 272 282 291 297 303 307 311 315 318 321 326 331 335 338 341 343 346 348 349 349 348 347 347 348 350 351 351 350 350
235 235 235 234 234 233 233 235 239 245 251 255 261 267 276 285 290 295 299 302 304 306 309 314 318 322 324 327 330 333 336 338 339 340 340 341 341 342 344 346 346 346
231 232 231 230 229 229 232 234 238 244 250 255 260 265 272 278 283 287 291 293 295 297 301 306 310 314 316 318 321 323 325 327 329 330 330 331 331 332 334 337 339 341
228 230 230 229 227 228 231 233 236 242 248 254 259 265 269 272 276 279 282 284 287 290 295 301 307 312 317 320 322 323 325 326 327 327 326 324 323 323 324 326 328 330
227 230 233 233 231 230 232 235 237 241 247 253 259 264 267 268 270 271 273 275 278 283 291 298 305 313 319 325 328 330 330 331 332 332 330 328 324 321 320 319 319 320
227 229 233 236 237 236 237 238 240 243 247 253 258 264 266 265 264 264 265 267 270 277 287 295 304 314 321 326 330 332 334 335 336 336 335 334 331 327 324 321 319 318
230 230 232 235 237 239 241 242 243 244 247 252 258 262 263 263 260 258 259 260 263 271 280 289 299 310 315 321 327 330 334 336 337 338 338 338 338 336 334 330 327 325
235 233 232 234 236 239 241 243 244 245 247 250 254 256 258 258 256 254 254 256 258 264 269 276 286 296 302 310 319 326 332 336 338 340 341 342 343 342 342 340 338 334
240 236 234 234 236 238 240 242 243 243 243 244 246 248 250 252 252 252 252 253 254 256 259 263 268 279 288 299 312 322 329 334 337 340 343 345 345 347 347 347 345 343
242 238 235 234 235 237 239 241 240 240 239 239 240 241 243 247 250 250 248 248 250 252 254 258 262 267 278 291 305 315 322 328 334 340 344 346 346 347 349 349 349 350
240 238 234 232 234 236 238 240 240 239 238 238 238 238 240 243 246 248 247 244 245 249 254 259 260 264 273 286 298 308 315 323 330 337 342 345 345 347 348 349 349 351
236 235 232 230 231 234 238 240 241 240 239 239 237 237 238 240 241 243 245 245 246 247 252 256 259 265 274 284 294 303 311 319 326 333 338 339 342 345 346 346 347 350
231 231 229 227 227 230 234 238 241 242 241 239 237 235 234 236 238 240 242 245 246 247 249 252 257 264 273 282 290 298 306 314 322 329 332 334 338 341 342 342 344 347
228 228 225 223 223 224 228 233 237 241 242 241 238 235 234 235 237 238 240 242 245 248 250 251 253 260 268 274 284 292 299 308 317 325 329 333 337 338 337 338 341 344
228 226 223 221 220 220 222 225 229 233 237 239 239 236 235 235 236 238 240 242 245 248 249 251 253 256 262 267 275 284 293 302 313 321 326 332 336 335 333 333 336 339
227 225 222 220 218 217 218 218 219 220 224 228 234 237 237 237 238 239 240 241 243 245 249 252 255 257 261 266 271 278 287 297 307 316 323 331 336 333 330 330 332 333
227 226 223 219 217 218 218 217 215 214 213 214 221 231 237 240 240 239 239 240 242 245 248 251 253 257 262 269 274 279 287 296 305 311 319 329 334 331 328 328 329 329
227 226 224 221 219 218 218 218 216 214 213 211 211 217 226 235 240 241 240 241 242 243 246 247 249 254 261 269 277 283 288 297 304 309 316 326 329 326 325 326 327 325
227 227 225 224 222 219 216 216 215 214 214 213 211 212 216 224 234 239 240 241 241 242 243 244 245 250 258 267 275 281 288 295 301 305 313 321 321 319 321 323 324 321
Height
11016 11017 11017 11017 11017 11018 11018 11019 11019 11020 11021 11022 11023 11023 11024 11024 11024 11023 11023 11022 11021 11021 11020 11020 11019 11018 11018 11017 11017 11016 11016 11015 11014 11014 11013 11013 11012 11011 11011 11010 11009 11007
11014 11015 11016 11016 11017 11017 11018 11018 11019 11020 11021 11022 11023 11023 11024 11024 11024 11024 11023 11023 11022 11022 11021 11020 11020 11019 11019 11018 11018 11017 11016 11016 11015 11014 11014 11013 11013 11012 11012 11011 11010 11009
11012 11013 11014 11015 11016 11016 11017 11018 11018 11019 11020 11021 11022 11023 11024 11024 11024 11024 11024 11023 11023 11022 11022 11021 11021 11020 11020 11019 11018 11017 11017 11016 11016 11015 11014 11014 11013 11013 11013 11012 11011 11010
11011 11012 11013 11014 11014 11015 11016 11017 11018 11018 11019 11020 11021 11022 11023 11023 11023 11023 11023 11023 11022 11022 11022 11021 11021 11020 11020 11019 11019 11018 11017 11016 11016 11015 11015 11014 11014 11013 11013 11012 11012 11011
11009 11011 11012 11012 11013 11014 11015 11016 11017 11017 11018 11019 11019 11020 11021 11022 11022 11022 11022 11022 11022 11021 11021 11021 11021 11020 11020 11019 11019 11018 11017 11016 11016 11015 11015 11015 11014 11014 11013 11013 11012 11012
11007 11008 11010 11010 11011 11013 11014 11015 11016 11016 11017 11018 11018 11019 11020 11021 11021 11021 11021 11021 11021 11021 11020 11020 11020 11020 11019 11019 11019 11018 11017 11017 11016 11015 11015 11015 11015 11014 11014 11013 11012 11011
11004 11006 11008 11009 11010 11012 11013 11014 11014 11015 11016 11017 11018 11018 11019 11019 11020 11020 11020 11020 11020 11020 11020 11020 11019 11019 11019 11018 11018 11018 11017 11017 11016 11016 11015 11015 11015 11014 11014 11013 11012 11012
11003 11004 11006 11007 11009 11010 11011 11012 11013 11014 11015 11016 11017 11018 11018 11018 11019 11019 11019 11019 11019 11019 11019 11019 11019 11018 11018 11018 11018 11017 11017 11017 11016 11016 11015 11015 11014 11014 11014 11013 11012 11012
11001 11003 11004 11005 11007 11008 11010 11011 11012 11013 11014 11015 11016 11017 11017 11018 11018 11018 11019 11019 11018 11018 11018 11018 11018 11018 11017 11017 11017 11017 11017 11016 11016 11016 11015 11015 11014 11014 11013 11013 11012 11012
10998 11000 11001 11003 11005 11007 11008 11009 11011 11011 11012 11013 11014 11015 11016 11016 11017 11017 11018 11018 11017 11017 11017 11017 11017 11017 11017 11017 11016 11016 11016 11016 11016 11015 11015 11014 11014 11013 11013 11012 11012 11012
10995 10996 10998 11000 11003 11005 11006 11008 11009 11010 11011 11011 11012 11013 11014 11015 11015 11016 11016 11016 11016 11016 11016 11016 11016 11016 11016 11016 11016 11015 11015 11015 11015 11015 11015 11014 11014 11013 11013 11012 11012 11012
10992 10993 10995 10997 11000 11003 11004 11006 11007 11008 11009 11010 11010 11011 11012 11013 11014 11014 11014 11015 11015 11015 11015 11015 11015 11015 11015 11015 11015 11015 11015 11014 11014 11014 11014 11014 11013 11013 11012 11012 11011 11011
10990 10991 10992 10995 10998 11000 11002 11003 11004 11006 11007 11008 11009 11009 11010 11011 11012 11012 11013 11013 11013 11013 11014 11014 11015 11015 11015 11015 11014 11014 11014 11013 11013 11013 11013 11013 11013 11012 11012 11011 11011 11010
10987 10989 10991 10993 10995 10997 10998 11000 11001 11003 11005 11006 11007 11007 11008 11009 11010 11011 11011 11011 11012 11012 11013 11013 11014 11014 11014 11014 11014 11013 11013 11013 11012 11012 11012 11012 11012 11011 11011 11011 11010 11009
10985 10988 10990 10991 10993 10994 10995 10996 10998 11000 11002 11004 11004 11005 11006 11007 11008 11009 11009 11010 11010 11011 11011 11012 11012 11013 11013 11013 11013 11012 11012 11012 11012 11012 11011 11011 11011 11011 11010 11010 11009 11009
10982 10985 10987 10989 10990 10991 10992 10994 10996 10998 11000 11001 11002 11003 11004 11005 11006 11007 11008 11008 11009 11010 11010 11011 11011 11012 11012 11012 11012 11011 11011 11011 11011 11011 11011 11010 11010 11010 11010 11009 11009 11008
10979 10982 10984 10986 10987 10989 10990 10991 10993 10995 10997 10998 10999 11000 11002 11003 11004 11005 11006 11007 11008 11008 11008 11009 11010 11010 11010 11010 11010 11010 11010 11010 11010 11010 11010 11010 11009 11009 11009 11008 11008 11007
10976 10978 10981 10983 10985 10986 10988 10989 10991 10993 10995 10996 10997 10999 11000 11001 11002 11003 11005 11006 11006 11006 11007 11007 11008 11008 11009 11009 11009 11009 11009 11009 11010 11010 11010 11009 11009 11008 11008 11007 11007 11006
10972 10975 10977 10980 10982 10984 10985 10987 10989 10991 10993 10994 10996 10997 10999 10999 11000 11002 11003 11004 11004 11005 11005 11005 11006 11006 11007 11007 11008 11008 11008 11008 11009 11009 11009 11008 11008 11008 11007 11006 11005 11005
10967 10970 10973 10975 10978 10981 10983 10985 10986 10988 10991 10993 10995 10996 10996 10997 10999 11000 11001 11002 11002 11003 11003 11003 11004 11004 11005 11005 11006 11007 11007 11007 11007 11007 11007 11007 11007 11006 11006 11005 11005 11004
10964 10966 10969 10971 10974 10976 10979 10981 10983 10986 10988 10990 10992 10993 10994 10995 10996 10998 10999 11000 11000 11001 11001 11001 11002 11002 11003 11003 11004 11005 11005 11005 11005 11005 11005 11005 11005 11005 11004 11004 11003 11003
10961 10964 10966 10968 10970 10972 10973 10975 10978 10981 10984 10986 10988 10990 10991 10992 10994 10995 10997 10998 10998 10999 10998 10999 11000 11001 11001 11001 11002 11003 11003 11003 11003 11004 11004 11003 11003 11003 11002 11002 11001 11001
10959 10960 10962 10963 10965 10967 10967 10969 10971 10973 10976 10979 10982 10985 10987 10989 10991 10993 10994 10995 10996 10996 10996 10997 10998 10998 10998 10999 11000 11001 11001 11001 11001 11002 11001 11001 11001 11001 11000 10999 10999 10999
10954 10955 10957 10959 10960 10961 10963 10965 10967 10968 10969 10970 10972 10976 10981 10985 10987 10990 10991 10993 10993 10994 10994 10995 10995 10996 10996 10996 10997 10998 10998 10999 10999 10999 11000 11000 10999 10999 10998 10998 10997 10997
10948 10950 10953 10954 10956 10958 10961 10964 10966 10966 10966 10965 10965 10968 10972 10978 10982 10985 10988 10990 10991 10992 10992 10992 10993 10993 10993 10993 10994 10995 10995 10996 10996 10997 10997 10998 10997 10997 10996 10996 10995 10995
10942 10945 10948 10950 10952 10955 10958 10961 10963 10964 10964 10964 10964 10965 10968 10972 10976 10980 10984 10986 10988 10989 10989 10990 10990 10991 10991 10991 10991 10992 10992 10993 10993 10993 10994 10995 10995 10995 10994 10994 10993 10993